Regional Weather Roundup
Issued by NWS

Home | Current Version | Previous Version | Graphics & Text | Print | Product List | Glossary On
Versions: 1 2 3 4 5 6 7 8 9 10 11 12 13 14 15 16 17 18 19 20 21 22 23 24 25 26 27 28 29 30 31 32 33 34 35 36 37 38 39 40 41 42 43 44 45 46 47 48 49
389
ASUS45 KSLC 071510
RWRUT

UTAH REGIONAL WEATHER ROUNDUP
NATIONAL WEATHER SERVICE SALT LAKE CITY UT
800 AM MST SUN FEB 07 2016

UTZ001>011-023>025-071600-

NORTHERN UTAH

CITY           SKY/WX    TMP DP  RH WIND       PRES   REMARKS
BRIGHAM CITY   PTCLDY    13  10  87 E6        30.57R WCI   3
HILL AFB       CLEAR     22  12  65 E10       30.54R WCI  11
LOGAN          MOCLDY    13  11  92 NW5       30.54R FOG     WCI   5
OGDEN          CLEAR     21  16  81 S9        30.54R WCI  11
PROVO AIRPORT  FOG        9   3  78 CALM      30.57R VSB 3/4
SALT LAKE CITY MOCLDY    24  18  77 SE7       30.56R WCI  16
VERNAL         CLOUDY     6   2  83 CALM      30.49R
WENDOVER       MOCLDY    19  16  86 E6        30.55R WCI  11
HEBER CITY     PTCLDY     5   1  85 E5        30.51S FOG     WCI  -4
WEST JORDAN    CLEAR     21  18  86 CALM      30.55R

$$

UTZ012>022-026-027-071600-

SOUTHERN/CENTRAL UTAH

CITY           SKY/WX    TMP DP  RH WIND       PRES   REMARKS
BLANDING       MOCLDY    17  13  84 N3        30.49R
BRYCE CANYON   PTCLDY     6   1  80 W3        30.47R
CEDAR CITY     PTCLDY     9   6  88 E3        30.48R
DELTA          CLOUDY     2  -1  88 CALM      30.56R VSB<1/4
HANKSVILLE     CLOUDY    16  14  93 E5        30.57R VSB 1/4 WCI   9
MILFORD        MOCLDY    -1  -4  87 SW6       30.54R FOG     WCI -13
MOAB/CYNLANDS  CLOUDY    11   8  88 W5        30.53R FOG     WCI   3
PRICE          PTCLDY    11   6  81 CALM      30.44R
ST GEORGE      MOSUNNY   30  21  69 CALM      30.48R

$$

REGIONAL REPORTS     COLORADO/ARIZONA

CITY           SKY/WX    TMP DP  RH WIND       PRES   REMARKS
CRAIG, CO      CLOUDY    -4  -6  91 CALM      30.46R
GRAND JUNCTION CLOUDY    10   9  95 E5        30.52R FOG     WCI   2
RIFLE          CLOUDY     8   3  80 CALM      30.53R
MONTROSE       CLOUDY    12   7  80 SE6       30.51R WCI   3
CORTEZ         CLOUDY    13   8  81 E7        30.42R WCI   3
PAGE, AZ       PTCLDY    27  22  81 CALM      30.48R
GRAND CANYON   PTCLDY    18  11  74 CALM      30.42R
KINGMAN        CLEAR     35  22  58 NE5       30.33R WCI  31
FLAGSTAFF      PTCLDY    13   8  81 N3        30.41R

$$

REGIONAL REPORTS    NEVADA/IDAHO/WYOMING

CITY           SKY/WX    TMP DP  RH WIND       PRES   REMARKS
LAS VEGAS, NV  CLEAR     44  24  45 CALM      30.34R
ELY            PTCLDY     6  -1  73 S13       30.53R WCI -10
ELKO           MOCLDY     6   2  83 CALM      30.58S
POCATELLO, ID  PTCLDY    20  18  92 N7        30.53R WCI  11
BURLEY         CLEAR     25  22  88 CALM      30.51R
EVANSTON, WY   CLOUDY    21  12  68 SW13      30.46R WCI   9
ROCK SPRINGS   CLOUDY    25  17  72 W26       30.39S WCI   9

$$




USA.gov is the U.S. government's official web portal to all federal, state and local government web resources and services.